Location: Hastringsfeld
(50.9620°N, 10.4787°E)
Time: 04:31:59
(UTC+00:00)

CZ-2C R/B - Pass Details

Date: 26 September 2023
Orbit: 666 x 781 km, 98.3° (Epoch: 29 November)

Event Time Altitude Azimuth Distance (km) Brightness Sun altitude
Rises 02:43:31 0° 16° (NNE) 3,188 6.4 -22.9°
Reaches altitude 10° 02:45:53 10° 20° (NNE) 2,242 5.6 -22.6°
Maximum altitude 02:50:46 63° 102° (ESE) 799 2.7 -21.9°
Enters shadow 02:53:38 23° 177° (S) 1,461 3.7 -21.5°
